Flag for Germany Weather past 2 weeks in Schwäbisch Gmünd, Baden-Württemberg, Germany

Now
29 °F

Overcast.


Feels Like: 29 °F
Forecast: 21 / 35 °F
Wind: 2 mph from South

Location: Stoetten

Current Time: Jan 31, 2015 at 5:39:25 PM

Latest Report: Jan 31, 2015 at 5:00 PM


Visibility: 38 mi

Pressure: 29.12 "Hg

Humidity: 76%

Dew point: 22 °F

Location of Schwäbisch GmündLocation

Historic Weather in Schwäbisch Gmünd — Graph

°F

Schwäbisch Gmünd temperature yesterday

Maximum temperature yesterday: 32 °F (at 12:00 AM)
Minimum temperature yesterday: 25 °F (at 11:00 AM)
Average temperature yesterday: 28 °F

Past Weeks' High & Low Weather Summary

 TemperatureHumidityPressure
High41 °F (Jan 16, 4:00 PM)100% (Jan 16, 10:00 PM)30.46 "Hg (Jan 16, 10:00 PM)
Low23 °F (Jan 31, 9:00 AM)72% (Jan 16, 4:00 PM)28.79 "Hg (Jan 30, 2:00 AM)
Average29 °F96%29.90 "Hg
* Reported Jan 16 4:00 PM — Jan 31 4:00 PM, Schwäbisch Gmünd, Weather by CustomWeather, © 2014

Note: Actual official high and low records may vary slightly from our data, if they occured in-between our weather recording intervals... More about our weather records

Advertising

Schwäbisch Gmünd weather history for previous 24 hours

 ConditionsComfort  
Time TempWeatherWind HumidityBarometerVisibility
4:00 PM
Jan 31
30 °FOvercast.2 mph75%29.12 "Hg43 mi
3:00 PM28 °FOvercast.5 mph77%29.12 "Hg43 mi
2:00 PM29 °FSnow flurries. Overcast.5 mph79%29.12 "Hg43 mi
1:00 PM29 °FPartly sunny.5 mph82%29.12 "Hg43 mi
12:00 PM29 °FOvercast.3 mph81%29.12 "Hg43 mi
11:00 AM28 °FOvercast.3 mph82%29.12 "Hg47 mi
10:00 AM25 °FPartly sunny.3 mph86%29.12 "Hg34 mi
9:00 AM23 °FScattered clouds.5 mph95%29.12 "Hg11 mi
8:00 AM26 °FPartly sunny.9 mph92%29.06 "Hg6 mi
7:00 AM27 °FLow clouds.9 mph96%29.06 "Hg5 mi
6:00 AM27 °FLight snow. Overcast.9 mph92%29.03 "Hg6 mi
5:00 AM27 °FLight snow. Overcast.7 mph93%29.03 "Hg6 mi
4:00 AM26 °FLow clouds.7 mph96%29.03 "Hg4 mi
3:00 AM26 °FLow clouds.7 mph96%29.03 "Hg17 mi
2:00 AM26 °FLow clouds.7 mph97%29.00 "Hg5 mi
1:00 AM26 °FSnow flurries. Low clouds.5 mph98%29.00 "Hg1 mi
12:00 AM26 °FLight snow. Low clouds.5 mph98%29.00 "Hg0 mi
11:00 PM
Jan 30
26 °FLight snow. Low clouds.3 mph97%28.97 "Hg3 mi
10:00 PM26 °FSnow. Low clouds.5 mph96%28.94 "Hg0 mi
9:00 PM27 °FSnow. Ice fog.6 mph96%28.94 "Hg1 mi
8:00 PM27 °FSnow. Ice fog.5 mph99%28.91 "Hg1 mi
7:00 PM27 °FSnow. Ice fog.6 mph97%28.91 "Hg1 mi
6:00 PM28 °FLight snow. Ice fog.5 mph96%28.91 "Hg1 mi
5:00 PM27 °FLight snow. Ice fog.7 mph99%28.94 "Hg1 mi
Weather by CustomWeather, © 2014

See weather overviewHow to use our weather pages